Temp: 16.2°C   Baro: 1012.0mb
  Wind: 8.1mph   Dir: WNW (283°)
  Rain: 0.0mm (0.0mm/hr)
  Solar: 257W/m2  Hum: 80%
 
Bath Spa Weather Historical Data
 
Daily Summary for May 26, 2019 Units:  Metric    English   Both
Next Day »
Daily Weekly Monthly Yearly Custom
  Current: High: Low: Average:
Temperature: 16.2 °C 16.4 °C 12.2 °C 14 °C
Dew Point: 12.7 °C 13.9 °C 10.6 °C 12.1 °C
Humidity: 80% 92% 80% 89%
Wind Speed: 16.3km/h 35.4km/h 0.0km/h 12.1km/h
Wind Gust: 16.1km/h 38.6km/h - -
Wind directionWest - - West
Pressure: 1011.7 hPa 1017.8 hPa 1011.7 hPa -
Precipitation: 0.0 mm      
Historical Graphs
 
 
Tabular Data for May 26, 2019
Time Temperature Dew Point Pressure Wind direction Wind Speed Wind Gust Humidity Rainfall Rate (Hourly) solar
00:04 12.7 °C 10.9 °C 1017.8 hPa West 3.2 km/h 11.3 km/h 89% 0.0 mm 0.00 W/m2
00:09 12.7 °C 10.9 °C 1017.8 hPa West 4.7 km/h 12.9 km/h 89% 0.0 mm 0.00 W/m2
00:14 12.7 °C 11.1 °C 1017.8 hPa WNW 16.1 km/h 16.1 km/h 90% 0.0 mm 0.00 W/m2
00:19 12.7 °C 11.1 °C 1017.8 hPa WNW 6.4 km/h 14.5 km/h 90% 0.0 mm 0.00 W/m2
00:24 12.7 °C 11.1 °C 1017.8 hPa WNW 1.4 km/h 11.3 km/h 90% 0.0 mm 0.00 W/m2
00:29 12.7 °C 11.1 °C 1017.8 hPa Calm   8.0 km/h 90% 0.0 mm 0.00 W/m2
00:34 12.7 °C 11.1 °C 1017.8 hPa WSW 4.7 km/h 8.0 km/h 90% 0.0 mm 0.00 W/m2
00:39 12.7 °C 11.1 °C 1017.8 hPa WNW 9.7 km/h 9.7 km/h 90% 0.0 mm 0.00 W/m2
00:44 12.8 °C 11.2 °C 1017.5 hPa WNW 4.7 km/h 8.0 km/h 90% 0.0 mm 0.00 W/m2
00:49 12.8 °C 11.2 °C 1017.5 hPa West 7.9 km/h 8.0 km/h 90% 0.0 mm 0.00 W/m2
00:54 12.8 °C 11.2 °C 1017.5 hPa Calm   6.4 km/h 90% 0.0 mm 0.00 W/m2
00:59 12.8 °C 11.2 °C 1017.5 hPa West 3.2 km/h 12.9 km/h 90% 0.0 mm 0.00 W/m2
01:04 12.8 °C 11.2 °C 1017.5 hPa WNW 13.0 km/h 16.1 km/h 90% 0.0 mm 0.00 W/m2
01:09 12.8 °C 11.2 °C 1017.5 hPa West 3.2 km/h 11.3 km/h 90% 0.0 mm 0.00 W/m2
01:14 12.8 °C 11.4 °C 1017.5 hPa WSW 4.7 km/h 8.0 km/h 91% 0.0 mm 0.00 W/m2
01:19 12.8 °C 11.4 °C 1017.5 hPa West 9.7 km/h 14.5 km/h 91% 0.0 mm 0.00 W/m2
01:24 12.8 °C 11.4 °C 1017.5 hPa West 11.1 km/h 11.3 km/h 91% 0.0 mm 0.00 W/m2
01:29 12.8 °C 11.4 °C 1017.5 hPa West 16.1 km/h 16.1 km/h 91% 0.0 mm 0.00 W/m2
01:34 12.8 °C 11.4 °C 1017.5 hPa NW 4.7 km/h 16.1 km/h 91% 0.0 mm 0.00 W/m2
01:39 12.8 °C 11.4 °C 1017.2 hPa West 6.4 km/h 11.3 km/h 91% 0.0 mm 0.00 W/m2
01:44 12.8 °C 11.4 °C 1017.2 hPa WSW 6.4 km/h 16.1 km/h 91% 0.0 mm 0.00 W/m2
01:49 12.8 °C 11.4 °C 1017.2 hPa West 4.7 km/h 11.3 km/h 91% 0.0 mm 0.00 W/m2
01:54 12.8 °C 11.4 °C 1017.2 hPa West 9.7 km/h 19.3 km/h 91% 0.0 mm 0.00 W/m2
01:59 12.7 °C 11.3 °C 1017.2 hPa West 6.4 km/h 22.5 km/h 91% 0.0 mm 0.00 W/m2
02:04 12.7 °C 11.3 °C 1017.2 hPa NW 14.3 km/h 17.7 km/h 91% 0.0 mm 0.00 W/m2
02:09 12.7 °C 11.3 °C 1017.2 hPa West 6.4 km/h 12.9 km/h 91% 0.0 mm 0.00 W/m2
02:14 12.7 °C 11.1 °C 1017.2 hPa West 13.0 km/h 12.9 km/h 90% 0.0 mm 0.00 W/m2
02:19 12.7 °C 11.3 °C 1016.8 hPa WNW 11.1 km/h 16.1 km/h 91% 0.0 mm 0.00 W/m2
02:24 12.6 °C 11.0 °C 1016.8 hPa West 13.0 km/h 12.9 km/h 90% 0.0 mm 0.00 W/m2
02:29 12.6 °C 11.0 °C 1016.8 hPa West 6.4 km/h 16.1 km/h 90% 0.0 mm 0.00 W/m2
02:34 12.6 °C 11.0 °C 1016.8 hPa NW 3.2 km/h 12.9 km/h 90% 0.0 mm 0.00 W/m2
02:39 12.5 °C 10.9 °C 1016.8 hPa West 14.3 km/h 17.7 km/h 90% 0.0 mm 0.00 W/m2
02:44 12.5 °C 10.9 °C 1016.8 hPa WNW 4.7 km/h 8.0 km/h 90% 0.0 mm 0.00 W/m2
02:49 12.5 °C 10.9 °C 1016.8 hPa WNW 9.7 km/h 14.5 km/h 90% 0.0 mm 0.00 W/m2
02:54 12.4 °C 10.8 °C 1016.8 hPa WSW 24.1 km/h 24.1 km/h 90% 0.0 mm 0.00 W/m2
02:59 12.3 °C 10.7 °C 1016.8 hPa WNW 17.7 km/h 22.5 km/h 90% 0.0 mm 0.00 W/m2
03:04 12.2 °C 10.6 °C 1016.8 hPa West 17.7 km/h 19.3 km/h 90% 0.0 mm 0.00 W/m2
03:09 12.2 °C 10.6 °C 1016.8 hPa WSW 7.9 km/h 12.9 km/h 90% 0.0 mm 0.00 W/m2
03:14 12.2 °C 10.6 °C 1016.5 hPa West 6.4 km/h 11.3 km/h 90% 0.0 mm 0.00 W/m2
03:19 12.3 °C 10.7 °C 1016.5 hPa WNW 6.4 km/h 11.3 km/h 90% 0.0 mm 0.00 W/m2
03:24 12.2 °C 10.6 °C 1016.5 hPa WNW 6.4 km/h 12.9 km/h 90% 0.0 mm 0.00 W/m2
03:29 12.2 °C 10.6 °C 1016.5 hPa WNW 13.0 km/h 12.9 km/h 90% 0.0 mm 0.00 W/m2
03:34 12.2 °C 10.8 °C 1016.5 hPa West 6.4 km/h 11.3 km/h 91% 0.0 mm 0.00 W/m2
03:39 12.2 °C 10.8 °C 1016.5 hPa West 6.4 km/h 12.9 km/h 91% 0.0 mm 0.00 W/m2
03:44 12.3 °C 10.9 °C 1016.1 hPa West 6.4 km/h 12.9 km/h 91% 0.0 mm 0.00 W/m2
03:49 12.3 °C 10.9 °C 1016.1 hPa West 4.7 km/h 9.7 km/h 91% 0.0 mm 0.00 W/m2
03:54 12.3 °C 10.9 °C 1016.1 hPa WNW 4.7 km/h 9.7 km/h 91% 0.0 mm 0.00 W/m2
03:59 12.4 °C 11.0 °C 1016.1 hPa WNW 3.2 km/h 14.5 km/h 91% 0.0 mm 0.00 W/m2
04:04 12.4 °C 11.0 °C 1016.1 hPa WNW 13.0 km/h 14.5 km/h 91% 0.0 mm 0.00 W/m2
04:09 12.5 °C 11.1 °C 1016.1 hPa West 4.7 km/h 9.7 km/h 91% 0.0 mm 0.00 W/m2
04:14 12.5 °C 11.1 °C 1016.1 hPa WSW 13.0 km/h 14.5 km/h 91% 0.0 mm 0.00 W/m2
04:19 12.5 °C 11.1 °C 1016.1 hPa WNW 11.1 km/h 12.9 km/h 91% 0.0 mm 0.00 W/m2
04:24 12.6 °C 11.2 °C 1016.1 hPa West 6.4 km/h 17.7 km/h 91% 0.0 mm 0.00 W/m2
04:29 12.7 °C 11.3 °C 1016.1 hPa WSW 4.7 km/h 11.3 km/h 91% 0.0 mm 0.00 W/m2
04:34 12.7 °C 11.1 °C 1016.1 hPa West 4.7 km/h 11.3 km/h 90% 0.0 mm 0.00 W/m2
04:39 12.7 °C 11.1 °C 1015.8 hPa West 7.9 km/h 14.5 km/h 90% 0.0 mm 0.00 W/m2
04:44 12.7 °C 11.1 °C 1015.8 hPa West 16.1 km/h 16.1 km/h 90% 0.0 mm 0.00 W/m2
04:49 12.7 °C 11.1 °C 1015.8 hPa WNW 9.7 km/h 12.9 km/h 90% 0.0 mm 0.00 W/m2
04:54 12.7 °C 11.1 °C 1015.8 hPa West 6.4 km/h 20.9 km/h 90% 0.0 mm 0.00 W/m2
04:59 12.7 °C 11.1 °C 1015.8 hPa West 6.4 km/h 12.9 km/h 90% 0.0 mm 0.00 W/m2
05:04 12.7 °C 11.1 °C 1015.8 hPa West 11.1 km/h 20.9 km/h 90% 0.0 mm 0.00 W/m2
05:09 12.7 °C 11.3 °C 1015.8 hPa West 6.4 km/h 9.7 km/h 91% 0.0 mm 0.00 W/m2
05:14 12.7 °C 11.1 °C 1015.5 hPa West 7.9 km/h 14.5 km/h 90% 0.0 mm 0.00 W/m2
05:19 12.7 °C 11.3 °C 1015.5 hPa West 9.7 km/h 12.9 km/h 91% 0.0 mm 5.00 W/m2
05:24 12.8 °C 11.4 °C 1015.5 hPa WNW 13.0 km/h 14.5 km/h 91% 0.0 mm 9.00 W/m2
05:29 12.8 °C 11.4 °C 1015.5 hPa WNW 11.1 km/h 20.9 km/h 91% 0.0 mm 5.00 W/m2
05:34 12.8 °C 11.4 °C 1015.5 hPa WNW 16.3 km/h 20.9 km/h 91% 0.0 mm 7.00 W/m2
05:39 12.8 °C 11.4 °C 1015.5 hPa West 7.9 km/h 19.3 km/h 91% 0.0 mm 9.00 W/m2
05:44 12.8 °C 11.4 °C 1015.5 hPa WNW 11.1 km/h 20.9 km/h 91% 0.0 mm 11.00 W/m2
05:49 12.8 °C 11.4 °C 1015.5 hPa West 7.9 km/h 24.1 km/h 91% 0.0 mm 11.00 W/m2
05:54 12.8 °C 11.4 °C 1015.5 hPa West 9.7 km/h 17.7 km/h 91% 0.0 mm 12.00 W/m2
05:59 12.8 °C 11.4 °C 1015.5 hPa West 11.1 km/h 24.1 km/h 91% 0.0 mm 19.00 W/m2
06:04 12.8 °C 11.4 °C 1015.5 hPa West 11.1 km/h 20.9 km/h 91% 0.0 mm 21.00 W/m2
06:09 12.8 °C 11.4 °C 1015.1 hPa WNW 14.3 km/h 17.7 km/h 91% 0.0 mm 26.00 W/m2
06:14 12.7 °C 11.3 °C 1015.5 hPa WNW 14.3 km/h 25.7 km/h 91% 0.0 mm 25.00 W/m2
06:19 12.7 °C 11.3 °C 1015.5 hPa NW 13.0 km/h 16.1 km/h 91% 0.0 mm 28.00 W/m2
06:24 12.8 °C 11.4 °C 1015.5 hPa West 13.0 km/h 16.1 km/h 91% 0.0 mm 30.00 W/m2
06:29 12.8 °C 11.5 °C 1015.1 hPa NW 4.7 km/h 14.5 km/h 92% 0.0 mm 30.00 W/m2
06:34 12.8 °C 11.5 °C 1015.1 hPa West 11.1 km/h 16.1 km/h 92% 0.0 mm 26.00 W/m2
06:39 12.8 °C 11.5 °C 1015.5 hPa West 20.9 km/h 20.9 km/h 92% 0.0 mm 23.00 W/m2
06:44 12.7 °C 11.4 °C 1015.1 hPa WNW 20.9 km/h 24.1 km/h 92% 0.0 mm 25.00 W/m2
06:49 12.7 °C 11.4 °C 1015.1 hPa West 11.1 km/h 17.7 km/h 92% 0.0 mm 25.00 W/m2
06:54 12.7 °C 11.4 °C 1015.1 hPa West 13.0 km/h 16.1 km/h 92% 0.0 mm 25.00 W/m2
06:59 12.8 °C 11.5 °C 1015.1 hPa WSW 11.1 km/h 19.3 km/h 92% 0.0 mm 37.00 W/m2
07:04 12.8 °C 11.5 °C 1015.1 hPa West 11.1 km/h 20.9 km/h 92% 0.0 mm 44.00 W/m2
07:09 12.8 °C 11.5 °C 1015.1 hPa WSW 13.0 km/h 19.3 km/h 92% 0.0 mm 47.00 W/m2
07:14 12.8 °C 11.5 °C 1015.1 hPa West 16.3 km/h 17.7 km/h 92% 0.0 mm 62.00 W/m2
07:19 12.8 °C 11.4 °C 1015.1 hPa NW 13.0 km/h 19.3 km/h 91% 0.0 mm 62.00 W/m2
07:24 12.9 °C 11.5 °C 1015.1 hPa West 20.9 km/h 20.9 km/h 91% 0.0 mm 79.00 W/m2
07:29 12.9 °C 11.5 °C 1015.1 hPa West 13.0 km/h 17.7 km/h 91% 0.0 mm 84.00 W/m2
07:34 13.0 °C 11.6 °C 1015.1 hPa NW 9.7 km/h 17.7 km/h 91% 0.0 mm 88.00 W/m2
07:39 13.0 °C 11.6 °C 1015.1 hPa West 11.1 km/h 24.1 km/h 91% 0.0 mm 100.00 W/m2
07:44 13.1 °C 11.7 °C 1015.1 hPa West 20.9 km/h 20.9 km/h 91% 0.0 mm 100.00 W/m2
07:49 13.0 °C 11.6 °C 1015.1 hPa West 13.0 km/h 30.6 km/h 91% 0.0 mm 88.00 W/m2
07:54 13.1 °C 11.7 °C 1015.1 hPa West 16.3 km/h 17.7 km/h 91% 0.0 mm 98.00 W/m2
07:59 13.0 °C 11.6 °C 1015.1 hPa West 6.4 km/h 22.5 km/h 91% 0.0 mm 70.00 W/m2
08:04 13.0 °C 11.6 °C 1015.1 hPa NW 13.0 km/h 20.9 km/h 91% 0.0 mm 46.00 W/m2
08:09 13.0 °C 11.6 °C 1015.1 hPa West 11.1 km/h 19.3 km/h 91% 0.0 mm 54.00 W/m2
08:14 13.0 °C 11.6 °C 1015.1 hPa West 11.1 km/h 12.9 km/h 91% 0.0 mm 54.00 W/m2
08:19 13.0 °C 11.6 °C 1015.1 hPa WSW 7.9 km/h 17.7 km/h 91% 0.0 mm 56.00 W/m2
08:24 13.0 °C 11.6 °C 1015.1 hPa West 9.7 km/h 16.1 km/h 91% 0.0 mm 111.00 W/m2
08:29 13.1 °C 11.7 °C 1015.1 hPa West 13.0 km/h 16.1 km/h 91% 0.0 mm 156.00 W/m2
08:34 13.2 °C 11.6 °C 1015.1 hPa West 3.2 km/h 11.3 km/h 90% 0.0 mm 79.00 W/m2
08:39 13.3 °C 11.7 °C 1015.1 hPa NNW 11.1 km/h 11.3 km/h 90% 0.0 mm 70.00 W/m2
08:44 13.4 °C 11.8 °C 1015.1 hPa WNW 7.9 km/h 17.7 km/h 90% 0.0 mm 69.00 W/m2
08:49 13.4 °C 11.8 °C 1015.1 hPa SW 14.3 km/h 19.3 km/h 90% 0.0 mm 97.00 W/m2
08:54 13.5 °C 11.7 °C 1015.1 hPa West 16.3 km/h 17.7 km/h 89% 0.0 mm 144.00 W/m2
08:59 13.5 °C 11.7 °C 1015.1 hPa WNW 19.3 km/h 19.3 km/h 89% 0.0 mm 104.00 W/m2
09:04 13.7 °C 11.9 °C 1015.1 hPa West 19.5 km/h 19.3 km/h 89% 0.0 mm 120.00 W/m2
09:09 13.8 °C 12.0 °C 1014.8 hPa WNW 7.9 km/h 17.7 km/h 89% 0.0 mm 137.00 W/m2
09:14 13.9 °C 11.9 °C 1014.8 hPa NW 11.1 km/h 20.9 km/h 88% 0.0 mm 134.00 W/m2
09:19 14.0 °C 12.0 °C 1014.8 hPa West 9.7 km/h 12.9 km/h 88% 0.0 mm 134.00 W/m2
09:24 14.0 °C 12.0 °C 1014.8 hPa WNW 19.5 km/h 20.9 km/h 88% 0.0 mm 149.00 W/m2
09:29 13.9 °C 11.9 °C 1014.8 hPa WNW 11.1 km/h 25.7 km/h 88% 0.0 mm 192.00 W/m2
09:34 14.0 °C 12.0 °C 1014.8 hPa WSW 11.1 km/h 17.7 km/h 88% 0.0 mm 178.00 W/m2
09:39 14.1 °C 12.1 °C 1014.8 hPa NW 7.9 km/h 16.1 km/h 88% 0.0 mm 213.00 W/m2
09:44 14.2 °C 12.2 °C 1014.8 hPa WNW 14.3 km/h 19.3 km/h 88% 0.0 mm 139.00 W/m2
09:49 14.1 °C 12.1 °C 1014.8 hPa WNW 6.4 km/h 19.3 km/h 88% 0.0 mm 151.00 W/m2
09:54 14.1 °C 12.1 °C 1014.8 hPa WNW 14.3 km/h 20.9 km/h 88% 0.0 mm 193.00 W/m2
09:59 14.2 °C 12.2 °C 1014.4 hPa West 9.7 km/h 12.9 km/h 88% 0.0 mm 220.00 W/m2
10:04 14.2 °C 12.2 °C 1014.4 hPa WNW 19.3 km/h 19.3 km/h 88% 0.0 mm 185.00 W/m2
10:09 14.1 °C 12.1 °C 1014.4 hPa WNW 4.7 km/h 16.1 km/h 88% 0.0 mm 155.00 W/m2
10:14 14.2 °C 12.2 °C 1014.4 hPa WSW 4.7 km/h 12.9 km/h 88% 0.0 mm 128.00 W/m2
10:19 14.3 °C 12.3 °C 1014.4 hPa West 9.7 km/h 12.9 km/h 88% 0.0 mm 237.00 W/m2
10:24 14.5 °C 12.5 °C 1014.4 hPa WNW 7.9 km/h 11.3 km/h 88% 0.0 mm 302.00 W/m2
10:29 14.8 °C 12.7 °C 1014.4 hPa NW 19.3 km/h 19.3 km/h 87% 0.0 mm 297.00 W/m2
10:34 15.2 °C 13.0 °C 1014.4 hPa NW 22.5 km/h 22.5 km/h 87% 0.0 mm 172.00 W/m2
10:39 15.2 °C 12.9 °C 1014.4 hPa WNW 7.9 km/h 22.5 km/h 86% 0.0 mm 218.00 W/m2
10:44 15.3 °C 12.8 °C 1014.4 hPa WSW 7.9 km/h 14.5 km/h 85% 0.0 mm 229.00 W/m2
10:49 15.4 °C 12.9 °C 1014.1 hPa West 7.9 km/h 12.9 km/h 85% 0.0 mm 179.00 W/m2
10:54 15.4 °C 12.9 °C 1014.1 hPa WSW 6.4 km/h 17.7 km/h 85% 0.0 mm 272.00 W/m2
10:59 15.6 °C 13.1 °C 1014.1 hPa WSW 6.4 km/h 12.9 km/h 85% 0.0 mm 248.00 W/m2
11:04 15.8 °C 13.3 °C 1014.1 hPa West 9.7 km/h 14.5 km/h 85% 0.0 mm 251.00 W/m2
11:09 15.9 °C 13.2 °C 1014.1 hPa WSW 9.7 km/h 22.5 km/h 84% 0.0 mm 214.00 W/m2
11:14 15.9 °C 13.2 °C 1014.1 hPa WNW 17.7 km/h 19.3 km/h 84% 0.0 mm 211.00 W/m2
11:19 16.0 °C 13.3 °C 1014.1 hPa WSW 4.7 km/h 14.5 km/h 84% 0.0 mm 139.00 W/m2
11:24 15.8 °C 13.1 °C 1014.1 hPa WNW 6.4 km/h 20.9 km/h 84% 0.0 mm 199.00 W/m2
11:29 15.7 °C 13.2 °C 1014.1 hPa WSW 13.0 km/h 19.3 km/h 85% 0.0 mm 199.00 W/m2
11:34 15.5 °C 13.2 °C 1014.1 hPa WSW 22.5 km/h 22.5 km/h 86% 0.0 mm 176.00 W/m2
11:39 15.4 °C 13.1 °C 1014.1 hPa West 13.0 km/h 24.1 km/h 86% 0.0 mm 169.00 W/m2
11:44 15.5 °C 13.2 °C 1014.1 hPa WSW 11.1 km/h 20.9 km/h 86% 0.0 mm 193.00 W/m2
11:49 15.5 °C 13.2 °C 1014.1 hPa West 7.9 km/h 11.3 km/h 86% 0.0 mm 169.00 W/m2
11:54 15.5 °C 13.3 °C 1013.8 hPa West 1.4 km/h 9.7 km/h 87% 0.0 mm 176.00 W/m2
11:59 15.6 °C 13.4 °C 1013.8 hPa WSW 13.0 km/h 14.5 km/h 87% 0.0 mm 209.00 W/m2
12:04 15.3 °C 13.1 °C 1013.8 hPa West 14.3 km/h 20.9 km/h 87% 0.0 mm 185.00 W/m2
12:09 15.3 °C 13.3 °C 1013.8 hPa WSW 9.7 km/h 20.9 km/h 88% 0.0 mm 188.00 W/m2
12:14 15.2 °C 13.4 °C 1013.8 hPa WSW 11.1 km/h 19.3 km/h 89% 0.0 mm 216.00 W/m2
12:19 15.3 °C 13.5 °C 1013.8 hPa WSW 13.0 km/h 17.7 km/h 89% 0.0 mm 195.00 W/m2
12:24 15.4 °C 13.6 °C 1013.8 hPa WSW 9.7 km/h 16.1 km/h 89% 0.0 mm 234.00 W/m2
12:29 15.3 °C 13.5 °C 1013.8 hPa WSW 19.5 km/h 19.3 km/h 89% 0.0 mm 169.00 W/m2
12:34 15.3 °C 13.5 °C 1013.8 hPa WNW 9.7 km/h 22.5 km/h 89% 0.0 mm 169.00 W/m2
12:39 15.3 °C 13.5 °C 1013.4 hPa WNW 19.5 km/h 27.4 km/h 89% 0.0 mm 178.00 W/m2
12:44 15.3 °C 13.7 °C 1013.8 hPa West 20.9 km/h 27.4 km/h 90% 0.0 mm 185.00 W/m2
12:49 15.1 °C 13.5 °C 1013.4 hPa West 19.5 km/h 22.5 km/h 90% 0.0 mm 250.00 W/m2
12:54 15.0 °C 13.4 °C 1013.4 hPa West 30.6 km/h 30.6 km/h 90% 0.0 mm 279.00 W/m2
12:59 15.1 °C 13.5 °C 1013.4 hPa NW 13.0 km/h 14.5 km/h 90% 0.0 mm 232.00 W/m2
13:04 15.0 °C 13.4 °C 1013.4 hPa WNW 20.9 km/h 27.4 km/h 90% 0.0 mm 163.00 W/m2
13:09 15.0 °C 13.2 °C 1013.4 hPa West 24.1 km/h 33.8 km/h 89% 0.0 mm 134.00 W/m2
13:14 14.9 °C 13.1 °C 1013.4 hPa WNW 17.7 km/h 22.5 km/h 89% 0.0 mm 128.00 W/m2
13:19 14.9 °C 12.9 °C 1013.4 hPa West 7.9 km/h 29.0 km/h 88% 0.0 mm 135.00 W/m2
13:24 14.8 °C 12.8 °C 1013.4 hPa WNW 11.1 km/h 25.7 km/h 88% 0.0 mm 127.00 W/m2
13:29 14.7 °C 12.7 °C 1013.4 hPa SSW 13.0 km/h 27.4 km/h 88% 0.0 mm 114.00 W/m2
13:34 14.7 °C 12.7 °C 1013.4 hPa NW 16.3 km/h 20.9 km/h 88% 0.0 mm 151.00 W/m2
13:39 14.7 °C 12.7 °C 1013.4 hPa West 16.3 km/h 30.6 km/h 88% 0.0 mm 232.00 W/m2
13:44 14.8 °C 12.8 °C 1013.4 hPa West 22.7 km/h 32.2 km/h 88% 0.0 mm 213.00 W/m2
13:49 14.9 °C 12.9 °C 1013.4 hPa West 24.1 km/h 29.0 km/h 88% 0.0 mm 251.00 W/m2
13:54 15.0 °C 12.9 °C 1013.4 hPa WNW 6.4 km/h 33.8 km/h 87% 0.0 mm 160.00 W/m2
13:59 15.0 °C 12.9 °C 1013.1 hPa WNW 7.9 km/h 29.0 km/h 87% 0.0 mm 271.00 W/m2
14:04 15.0 °C 12.9 °C 1013.1 hPa West 19.5 km/h 37.0 km/h 87% 0.0 mm 283.00 W/m2
14:09 14.9 °C 12.8 °C 1013.1 hPa WNW 30.6 km/h 38.6 km/h 87% 0.0 mm 287.00 W/m2
14:14 14.9 °C 12.8 °C 1013.1 hPa NW 25.9 km/h 38.6 km/h 87% 0.0 mm 315.00 W/m2
14:19 15.0 °C 12.9 °C 1012.8 hPa West 22.7 km/h 25.7 km/h 87% 0.0 mm 309.00 W/m2
14:24 15.0 °C 12.7 °C 1013.1 hPa West 14.3 km/h 30.6 km/h 86% 0.0 mm 318.00 W/m2
14:29 14.9 °C 12.8 °C 1013.1 hPa WNW 9.7 km/h 33.8 km/h 87% 0.0 mm 301.00 W/m2
14:34 15.0 °C 12.9 °C 1013.1 hPa WSW 20.9 km/h 30.6 km/h 87% 0.0 mm 378.00 W/m2
14:39 15.1 °C 13.1 °C 1013.1 hPa WNW 14.3 km/h 22.5 km/h 88% 0.0 mm 417.00 W/m2
14:44 15.0 °C 13.0 °C 1013.1 hPa NW 25.9 km/h 32.2 km/h 88% 0.0 mm 316.00 W/m2
14:49 15.1 °C 13.1 °C 1013.1 hPa WNW 13.0 km/h 22.5 km/h 88% 0.0 mm 315.00 W/m2
14:54 15.0 °C 12.9 °C 1013.1 hPa West 17.7 km/h 32.2 km/h 87% 0.0 mm 250.00 W/m2
14:59 15.0 °C 12.9 °C 1012.8 hPa WNW 13.0 km/h 32.2 km/h 87% 0.0 mm 461.00 W/m2
15:04 15.3 °C 13.1 °C 1012.8 hPa WSW 17.7 km/h 27.4 km/h 87% 0.0 mm 290.00 W/m2
15:09 15.3 °C 13.0 °C 1012.8 hPa NW 20.9 km/h 29.0 km/h 86% 0.0 mm 149.00 W/m2
15:14 15.0 °C 12.7 °C 1012.8 hPa WNW 27.4 km/h 33.8 km/h 86% 0.0 mm 188.00 W/m2
15:19 14.9 °C 12.8 °C 1012.8 hPa WNW 14.3 km/h 22.5 km/h 87% 0.0 mm 199.00 W/m2
15:24 14.9 °C 12.8 °C 1012.8 hPa West 35.4 km/h 35.4 km/h 87% 0.0 mm 156.00 W/m2
15:29 14.7 °C 12.6 °C 1012.8 hPa West 22.7 km/h 32.2 km/h 87% 0.0 mm 192.00 W/m2
15:34 14.7 °C 12.7 °C 1012.8 hPa West 25.9 km/h 33.8 km/h 88% 0.0 mm 139.00 W/m2
15:39 14.6 °C 12.6 °C 1012.8 hPa WNW 17.7 km/h 29.0 km/h 88% 0.0 mm 104.00 W/m2
15:44 14.5 °C 12.5 °C 1012.8 hPa WNW 9.7 km/h 30.6 km/h 88% 0.0 mm 123.00 W/m2
15:49 14.4 °C 12.6 °C 1012.8 hPa West 11.1 km/h 19.3 km/h 89% 0.0 mm 81.00 W/m2
15:54 14.4 °C 12.6 °C 1012.8 hPa WNW 11.1 km/h 27.4 km/h 89% 0.0 mm 98.00 W/m2
15:59 14.4 °C 12.8 °C 1012.8 hPa West 9.7 km/h 16.1 km/h 90% 0.0 mm 116.00 W/m2
16:04 14.4 °C 12.8 °C 1012.8 hPa West 14.3 km/h 16.1 km/h 90% 0.0 mm 95.00 W/m2
16:09 14.3 °C 12.7 °C 1012.8 hPa West 14.3 km/h 19.3 km/h 90% 0.0 mm 165.00 W/m2
16:14 14.2 °C 12.8 °C 1012.8 hPa WNW 14.3 km/h 22.5 km/h 91% 0.0 mm 178.00 W/m2
16:19 14.2 °C 12.8 °C 1012.8 hPa WNW 4.7 km/h 12.9 km/h 91% 0.0 mm 125.00 W/m2
16:24 14.4 °C 12.9 °C 1012.4 hPa WNW 7.9 km/h 8.0 km/h 91% 0.0 mm 97.00 W/m2
16:29 14.3 °C 12.9 °C 1012.4 hPa WNW 11.1 km/h 14.5 km/h 91% 0.0 mm 132.00 W/m2
16:34 14.3 °C 12.9 °C 1012.4 hPa NW 4.7 km/h 9.7 km/h 91% 0.0 mm 155.00 W/m2
16:39 14.3 °C 12.9 °C 1012.4 hPa West 1.4 km/h 20.9 km/h 91% 0.0 mm 243.00 W/m2
16:44 14.5 °C 13.2 °C 1012.4 hPa West 13.0 km/h 16.1 km/h 92% 0.0 mm 309.00 W/m2
16:49 14.5 °C 13.0 °C 1012.4 hPa WNW 16.3 km/h 19.3 km/h 91% 0.0 mm 185.00 W/m2
16:54 14.5 °C 13.0 °C 1012.4 hPa West 4.7 km/h 16.1 km/h 91% 0.0 mm 199.00 W/m2
16:59 14.8 °C 13.3 °C 1012.1 hPa WNW 14.3 km/h 17.7 km/h 91% 0.0 mm 360.00 W/m2
17:04 14.9 °C 13.3 °C 1012.1 hPa West 9.7 km/h 17.7 km/h 90% 0.0 mm 248.00 W/m2
17:09 15.2 °C 13.6 °C 1012.1 hPa NNW 14.3 km/h 16.1 km/h 90% 0.0 mm 413.00 W/m2
17:14 15.4 °C 13.6 °C 1012.1 hPa WSW 7.9 km/h 14.5 km/h 89% 0.0 mm 209.00 W/m2
17:19 15.4 °C 13.4 °C 1012.1 hPa West 16.3 km/h 19.3 km/h 88% 0.0 mm 304.00 W/m2
17:24 15.7 °C 13.5 °C 1012.1 hPa West 6.4 km/h 16.1 km/h 87% 0.0 mm 246.00 W/m2
17:29 16.1 °C 13.9 °C 1012.1 hPa NW 13.0 km/h 19.3 km/h 87% 0.0 mm 455.00 W/m2
17:34 16.1 °C 13.6 °C 1012.1 hPa WSW 13.0 km/h 12.9 km/h 85% 0.0 mm 253.00 W/m2
17:39 16.0 °C 13.3 °C 1012.1 hPa West 32.2 km/h 32.2 km/h 84% 0.0 mm 281.00 W/m2
17:44 15.7 °C 13.0 °C 1012.1 hPa WNW 7.9 km/h 19.3 km/h 84% 0.0 mm 306.00 W/m2
17:49 15.8 °C 13.1 °C 1011.7 hPa WSW 17.7 km/h 17.7 km/h 84% 0.0 mm 195.00 W/m2
17:54 15.9 °C 13.0 °C 1011.7 hPa WNW 7.9 km/h 20.9 km/h 83% 0.0 mm 366.00 W/m2
17:59 16.1 °C 13.2 °C 1011.7 hPa West 14.3 km/h 19.3 km/h 83% 0.0 mm 348.00 W/m2
18:04 16.4 °C 13.3 °C 1012.1 hPa West 17.7 km/h 17.7 km/h 82% 0.0 mm 343.00 W/m2
18:09 16.4 °C 13.1 °C 1011.7 hPa WNW 14.3 km/h 19.3 km/h 81% 0.0 mm 408.00 W/m2
18:14 16.4 °C 13.1 °C 1011.7 hPa West 11.1 km/h 22.5 km/h 81% 0.0 mm 413.00 W/m2
18:19 16.4 °C 12.9 °C 1012.1 hPa West 11.1 km/h 22.5 km/h 80% 0.0 mm 371.00 W/m2
18:24 16.3 °C 12.8 °C 1012.1 hPa West 9.7 km/h 32.2 km/h 80% 0.0 mm 392.00 W/m2
18:29 16.3 °C 12.8 °C 1011.7 hPa WSW 14.3 km/h 24.1 km/h 80% 0.0 mm 220.00 W/m2
18:34 16.2 °C 12.7 °C 1012.1 hPa West 16.3 km/h 17.7 km/h 80% 0.0 mm 167.00 W/m2
18:39 16.2 °C 12.7 °C 1011.7 hPa West 20.9 km/h 29.0 km/h 80% 0.0 mm 272.00 W/m2
18:44 16.2 °C 12.7 °C 1011.7 hPa WSW 14.3 km/h 22.5 km/h 80% 0.0 mm 327.00 W/m2
18:49 16.1 °C 12.6 °C 1011.7 hPa WNW 20.9 km/h 25.7 km/h 80% 0.0 mm 297.00 W/m2
18:54 16.2 °C 12.7 °C 1011.7 hPa West 16.3 km/h 16.1 km/h 80% 0.0 mm 246.00 W/m2